Terminal Aerodrome Forecast
Issued by NWS Jackson, MS

Home | Current Version | Previous Version | Text Only | Print | Product List | Glossary On
Versions: 1 2 3 4 5 6 7 8 9 10 11 12 13
937
FTUS44 KJAN 211512 AAA
TAFGWO
TAF AMD
KGWO 211512Z 2115/2212 22010KT 3SM -RA BR BKN007 OVC015
     FM211700 20007KT P6SM VCSH BKN015 OVC050
     FM211900 23006KT P6SM VCSH BKN025 BKN050
     FM212100 23007KT P6SM VCSH BKN035 BKN060
     FM220300 VRB03KT 5SM BR BKN015 BKN090
     FM220900 00000KT 2SM BR BKN005=

USA.gov is the U.S. government's official web portal to all federal, state and local government web resources and services.